CAPE
0 0 0 0 0 0 0 0 0 0 0 0 0 0 0 0 0 0 0 0 0 0 0 0 0 0 74 388 518 599 394 417
0 0 0 0 0 0 0 0 0 0 0 0 0 0 0 0 0 0 0 0 0 0 0 0 0 0 0 0 357 182 16 85
0 0 0 0 0 0 0 0 0 0 0 0 0 0 0 0 0 0 0 0 0 0 0 0 0 0 0 0 0 369 282 133
0 0 0 0 0 0 0 0 0 0 0 0 0 0 0 0 0 0 0 0 0 0 0 1 1 1 0 0 0 0 273 295
1 0 0 0 1 0 0 0 0 0 0 0 0 0 0 0 0 0 0 0 0 0 1 0 1 1 1 1 1 0 0 64
2 3 1 0 0 0 0 0 0 0 0 0 2 1 1 2 1 2 1 0 1 0 1 2 2 2 2 1 1 2 1 0
3 2 1 2 0 0 0 0 0 0 1 0 1 2 2 2 3 2 3 1 1 1 1 2 2 3 3 2 3 2 2 1
0 1 1 0 0 0 0 0 0 1 1 0 0 1 2 3 3 4 5 4 3 2 1 2 3 2 3 3 4 4 3 2
1 1 0 1 0 0 0 0 0 0 1 0 2 2 1 1 1 2 2 2 2 1 1 2 2 2 3 3 4 3 3 2
3 3 3 2 2 1 0 1 1 0 1 1 1 1 1 1 1 1 1 1 1 1 1 2 2 2 2 2 3 5 3 3
0 0 0 1 2 2 1 2 2 1 1 1 1 1 1 1 1 1 1 2 1 2 2 2 2 2 2 3 5 5 8 6
2 0 0 0 0 0 2 1 1 0 0 1 1 1 1 1 1 2 2 1 1 1 2 2 1 2 3 3 5 6 7 2
0 0 0 0 0 1 0 0 0 0 1 0 0 1 2 1 1 1 1 1 1 1 1 1 1 2 2 4 8 8 7 6
0 0 0 1 1 1 1 0 0 0 0 1 0 1 1 1 0 1 1 1 1 1 1 1 2 2 2 3 3 6 6 6
0 0 1 1 1 1 1 1 1 0 1 1 2 1 2 1 1 1 2 1 1 1 1 2 3 3 1 2 3 6 6 6
0 0 1 1 0 0 0 1 1 0 0 0 0 0 1 1 1 0 1 1 1 1 1 1 2 1 3 2 2 3 5 7
0 1 0 1 1 1 1 1 0 0 0 0 0 0 0 0 0 0 0 0 1 1 0 0 1 1 4 3 1 2 3 4
0 0 0 1 0 0 0 0 0 0 0 0 0 0 0 0 0 0 0 0 0 1 0 0 0 1 3 1 2 1 2 2
1 0 0 0 0 0 0 0 0 0 0 0 0 0 0 0 0 0 0 0 0 0 0 0 0 0 2 1 1 1 1 1
CIN
-0 -0 -0 -0 -0 -0 -0 -0 -0 -0 -0 -0 -0 -0 -0 -0 -0 -0 -0 -0 -0 -0 -0 -0 -0 -0 -126 -62 -39 -52 -37 -6
-0 -0 -0 -0 -0 -0 -0 -0 -0 -0 -0 -0 -0 -0 -0 -0 -0 -0 -0 -0 -0 -0 -0 -0 -0 -0 -0 -0 -55 -78 -108 -42
-0 -0 -0 -0 -0 -0 -0 -0 -0 -0 -0 -0 -0 -0 -0 -0 -0 -0 -0 -0 -0 -0 -0 -0 -0 -0 -0 -0 -0 -15 -33 -88
-0 -0 -0 -0 -0 -0 -0 -0 -0 -0 -0 -0 -0 -0 -0 -0 -0 -0 -0 -0 -0 -0 -0 -0 -0 -0 -0 -0 -0 -0 -8 -12
-0 -0 -0 -0 -0 -0 -0 -0 -0 -0 -0 -0 -0 -0 -0 -0 -0 -0 -0 -0 -0 -0 -0 -0 -0 -0 -0 -0 -0 -0 -0 -15
-0 -0 -0 -0 -0 -0 -0 -0 -0 -0 -0 -0 -0 -0 -0 -0 -0 -0 -0 -0 -0 -0 -0 -0 -0 -0 -0 -0 -0 -0 -0 -0
-0 -0 -0 -0 -0 -0 -0 -0 -0 -0 -0 -0 -0 -0 -0 -0 -0 -0 -0 -0 -0 -0 -0 -0 -0 -0 -0 -0 -0 -0 -0 -0
-0 -0 -0 -0 -0 -0 -0 -0 -0 -0 -0 -0 -0 -0 -0 -0 -0 -0 -0 -0 -0 -0 -0 -0 -0 -0 -0 -0 -0 -0 -0 -0
-0 -0 -0 -0 -0 -0 -0 -0 -0 -0 -0 -0 -0 -0 -0 -0 -0 -0 -0 -0 -0 -0 -0 -0 -0 -0 -0 -0 -0 -0 -0 -0
-0 -0 -0 -0 -0 -0 -0 -0 -0 -0 -0 -0 -0 -0 -0 -0 -0 -0 -0 -0 -0 -0 -0 -0 -0 -0 -0 -0 -0 -0 -0 -0
-0 -0 -0 -0 -0 -0 -0 -0 -0 -0 -0 -0 -0 -0 -0 -0 -0 -0 -0 -0 -0 -0 -0 -0 -0 -0 -0 -0 -0 -0 -0 -0
-0 -0 -0 -0 -0 -0 -0 -0 -0 -0 -0 -0 -0 -0 -0 -0 -0 -0 -0 -0 -0 -0 -0 -0 -0 -0 -0 -0 -0 -0 -0 -0
-0 -0 -0 -0 -0 -0 -0 -0 -0 -0 -0 -0 -0 -0 -0 -0 -0 -0 -0 -0 -0 -0 -0 -0 -0 -0 -0 -0 -0 -0 -0 -0
-0 -0 -0 -0 -0 -0 -0 -0 -0 -0 -0 -0 -0 -0 -0 -0 -0 -0 -0 -0 -0 -0 -0 -0 -0 -0 -0 -0 -0 -0 -0 -0
-0 -0 -0 -0 -0 -0 -0 -0 -0 -0 -0 -0 -0 -0 -0 -0 -0 -0 -0 -0 -0 -0 -0 -0 -0 -0 -0 -0 -0 -0 -0 -0
-0 -0 -0 -0 -0 -0 -0 -0 -0 -0 -0 -0 -0 -0 -0 -0 -0 -0 -0 -0 -0 -0 -0 -0 -0 -0 -0 -0 -0 -0 -0 -0
-0 -0 -0 -0 -0 -0 -0 -0 -0 -0 -0 -0 -0 -0 -0 -0 -0 -0 -0 -0 -0 -0 -0 -0 -0 -0 -0 -0 -0 -0 -0 -0
-0 -0 -0 -0 -1 -0 -0 -0 -0 -0 -0 -0 -0 -0 -0 -0 -0 -0 -0 -0 -0 -0 -0 -0 -0 -0 -0 -0 -0 -0 -0 -0
-0 -0 -0 -0 -0 -1 -0 -0 -0 -0 -0 -0 -0 -0 -0 -0 -0 -0 -0 -0 -0 -0 -0 -0 -0 -0 -0 -0 -0 -0 -0 -0
Wind_Speed
30 29 27 26 25 24 24 24 25 24 22 19 19 19 21 23 26 28 29 30 31 31 32 32 33 34 35 30 30 23 26 28
28 28 27 26 26 25 26 26 26 26 24 24 24 24 24 24 27 28 29 30 32 33 33 34 34 35 36 36 34 32 32 26
28 28 28 27 27 27 27 27 26 26 26 25 24 25 24 23 27 29 31 31 32 32 34 35 35 37 37 38 36 34 33 30
28 28 29 28 28 27 26 26 26 28 28 28 25 24 24 27 32 32 34 32 33 33 34 35 36 35 37 38 39 38 37 32
27 28 29 29 28 26 25 25 24 28 26 27 25 26 27 30 32 33 33 32 33 33 33 34 35 35 36 37 36 38 38 37
28 28 28 28 27 26 25 26 25 25 26 28 27 28 27 30 32 34 33 34 33 33 34 35 36 35 35 36 37 37 37 37
26 27 26 26 26 27 25 27 27 30 30 29 29 31 30 33 35 33 34 34 34 34 35 36 36 36 36 37 37 37 37 38
25 27 27 26 28 29 27 28 29 29 30 31 31 31 31 33 34 34 36 35 34 35 36 37 36 37 38 38 38 38 38 37
24 24 24 27 28 29 28 28 27 30 31 31 32 31 32 32 33 33 33 34 35 35 37 37 37 38 39 38 39 39 38 37
25 27 27 27 27 27 27 26 27 29 29 30 32 32 32 33 33 33 34 34 35 35 36 37 36 37 38 38 38 39 38 39
25 27 27 29 29 28 28 27 27 29 29 30 31 32 32 32 32 34 35 33 33 35 35 35 36 36 37 38 38 38 39 39
25 27 27 27 29 29 29 28 28 28 29 30 30 31 31 32 32 33 35 34 33 33 33 34 35 35 35 36 38 38 39 39
24 27 28 29 30 30 28 29 28 28 28 28 29 29 30 31 33 33 34 33 33 32 33 33 33 35 35 36 37 37 38 38
25 27 29 30 30 29 29 28 28 28 27 28 28 29 30 31 32 33 33 34 34 33 33 33 33 34 35 35 34 35 36 35
25 27 28 29 28 28 28 28 28 27 27 27 27 29 30 31 32 32 33 34 34 34 34 34 33 33 34 34 33 33 33 33
24 25 26 26 26 27 27 27 27 26 26 26 27 28 29 29 30 32 32 34 34 35 35 35 35 35 35 34 32 32 33 34
22 23 24 25 25 25 26 26 26 25 25 26 26 26 27 28 29 31 32 34 35 36 37 37 37 37 38 35 33 32 33 33
20 21 22 22 23 24 24 24 25 25 25 25 25 26 26 27 28 30 31 33 34 36 36 36 37 39 40 37 35 33 33 33
17 18 20 21 21 21 21 23 24 24 24 24 25 25 26 27 28 30 31 32 33 34 36 37 36 38 40 39 36 34 35 35
Wind_Direction
329 331 329 326 321 317 313 311 310 305 302 302 306 310 310 309 307 306 305 301 300 296 293 292 291 290 288 288 281 271 275 271
335 336 334 330 327 323 318 313 310 309 304 298 298 299 304 308 310 309 307 304 300 297 294 292 291 290 289 289 288 286 284 284
336 337 336 334 329 325 320 316 314 311 309 304 302 301 305 309 313 311 309 305 302 299 296 293 292 290 288 286 287 287 286 286
335 336 336 335 334 331 326 320 315 310 305 303 305 305 306 306 310 310 307 305 303 301 299 297 294 293 289 287 284 283 285 285
340 338 336 337 332 334 331 321 321 306 310 305 309 308 306 310 311 311 307 308 305 303 302 300 298 296 292 289 287 283 282 281
338 339 337 339 334 339 330 316 313 309 316 309 310 309 319 320 318 313 310 307 307 306 304 302 299 297 295 291 288 285 283 280
345 344 343 334 334 336 331 324 316 316 311 309 309 312 320 320 317 315 315 310 307 303 304 301 300 297 295 293 289 287 285 282
341 340 339 343 328 322 325 324 322 319 313 311 312 319 320 321 324 319 314 314 309 307 302 300 300 297 295 293 290 288 287 285
353 341 342 340 329 326 324 317 322 319 314 309 314 310 324 326 326 324 322 316 314 309 303 300 299 297 295 294 291 290 289 288
0 356 356 336 341 333 324 319 320 324 313 315 316 322 324 326 333 325 326 321 312 311 307 305 301 301 298 296 295 292 292 291
353 354 358 350 348 343 334 327 326 323 323 324 323 323 324 328 334 333 330 335 330 314 310 308 306 306 303 300 297 297 294 295
349 348 351 352 350 352 343 336 324 324 323 326 329 330 333 332 333 335 330 337 339 331 321 313 312 311 310 306 300 300 297 297
347 345 344 342 342 342 344 336 329 327 329 334 332 329 333 337 338 338 337 340 347 344 332 325 319 315 314 312 308 306 301 299
341 342 340 340 341 339 338 339 330 326 324 330 335 339 341 343 344 346 348 347 348 354 348 335 328 324 320 319 316 314 310 305
340 340 342 343 343 342 343 343 345 343 341 343 346 346 348 349 351 354 359 360 359 358 358 347 339 334 330 326 323 321 319 316
342 343 346 349 352 351 351 350 351 352 350 350 351 351 353 357 358 0 3 5 5 6 5 357 351 346 339 335 331 329 326 324
342 346 349 350 351 350 352 350 350 347 348 349 351 352 356 358 1 3 5 4 5 6 4 0 358 355 349 346 342 337 334 332
345 349 351 352 351 351 352 352 350 350 350 350 352 355 358 360 3 4 3 3 3 7 4 1 360 359 356 354 351 349 346 342
349 351 351 353 355 1 2 3 359 357 358 358 358 1 4 4 5 6 3 3 3 4 4 3 1 358 357 356 354 355 355 355